User: anonymous   Login
Location: Chena
(64.8152°N, 147.9227°W)
Time: 15:49:44
(UTC+00:00)
Language:

SPROUT - Orbit

View from above orbital plane
View from above orbital plane
View from above satellite
View from above satellite

Ground track
Ground track

The orbit data is extracted from the following two-line orbital elements,

1 39770U 14029E   21102.25649169  .00000670  00000-0  78501-4 0  9998
2 39770  97.9073 213.6224 0010293  70.4500 289.7842 14.88302507373498
Epoch (UTC): 12 April 2021 06:09:20
Eccentricity: 0.0010293
inclination: 97.9073°
perigee height: 596 km
apogee height: 610 km
right ascension of ascending node: 213.6224°
argument of perigee: 70.4500°
revolutions per day: 14.88302507
mean anomaly at epoch: 289.7842°
orbit number at epoch: 37349

The dashed part of the orbit path shows where the satellite is in the earth's shadow,  

DLR